Location: Taaricht
(32.5378°N, 5.4251°W)
Time: 12:37:03
(UTC+00:00)

DMSP B5D2-2 - Pass Details

Date: 09 April 2020
Orbit: 791 x 805 km, 98.3° (Epoch: 04 June)

Event Time Altitude Azimuth Distance (km) Brightness Sun altitude
Rises 20:43:00 0° 8° (N) 3,299 7.5 -23.8°
Reaches altitude 10° 20:45:21 10° 5° (N) 2,368 6.8 -24.3°
Maximum altitude 20:50:30 62° 285° (WNW) 895 4.5 -25.2°
Drops below altitude 10° 20:55:39 10° 206° (SSW) 2,364 6.5 -26.2°
Sets 20:58:00 0° 203° (SSW) 3,292 7.2 -26.6°
